Weather History for Hayward, WI

Change the Weather History Date:

Saturday, May 18, 2013

  Actual Average Record
Temperature  
Mean Temperature 63 °F -  
Max Temperature 73 °F 75 °F 87 °F (2012)
Min Temperature 53 °F 47 °F 26 °F (2000)
Degree Days  
Heating Degree Days 2    
Growing Degree Days 13 (Base 50)    
Moisture  
Dew Point 53 °F    
Average Humidity 85    
Maximum Humidity 94    
Minimum Humidity 61    
Precipitation  
Precipitation 0.60 in - - ()
Sea Level Pressure  
Sea Level Pressure 29.99 in    
Wind  
Wind Speed 6 mph (SE)    
Max Wind Speed 13 mph    
Max Gust Speed 18 mph    
Visibility 8 miles    
Events Rain , Thunderstorm    
Averages and records for this station are not official NWS values.
T = Trace of Precipitation, MM = Missing Value Source: NWS Daily Summary

Daily Weather History Graph

Daily Weather History Graph

Search for Another Location

Airport:

Trip Planner

Search our weather history database for the weather conditions in past years. The results will help you decide how hot, cold, wet, or windy it might be!

Date:

Astronomy

May. 18, 2013 Rise Set
Actual Time 5:29 AM CDT 8:35 PM CDT
Civil Twilight 4:54 AM CDT 9:10 PM CDT
Nautical Twilight 4:08 AM CDT 9:57 PM CDT
Astronomical Twilight 3:12 AM CDT 10:53 PM CDT
Moon 1:16 PM CDT (5/18) 1:45 AM CDT (5/18)
Length of Visible Light 16h 16m
Length of Day
15h 05m
First Quarter, 55% of the Moon is Illuminated
May 18
First Quarter
May 24
Full
May 31
Last Quarter
Jun 8
New
Jun 16
First Quarter

Hourly Weather History & Observations

Time (CDT) Temp. Dew Point Humidity Pressure Visibility Wind Dir Wind Speed Gust Speed Precip Events Conditions
12:25 AM 57.2 °F 46.4 °F 67% 30.06 in 10.0 mi Variable 3.5 mph - N/A   Overcast
12:43 AM 57.2 °F 46.4 °F 67% 30.05 in 10.0 mi Calm Calm - N/A   Overcast
12:53 AM 57.0 °F 46.0 °F 67% 30.05 in 10.0 mi SSE 9.2 mph - N/A   Overcast
1:53 AM 54.0 °F 48.9 °F 83% 30.04 in 9.0 mi SE 6.9 mph - 0.03 in Rain Light Rain
2:02 AM 53.6 °F 48.2 °F 82% 30.03 in 10.0 mi SE 9.2 mph - 0.00 in   Overcast
2:36 AM 55.4 °F 48.2 °F 77% 30.02 in 10.0 mi SSE 10.4 mph - 0.00 in   Overcast
2:53 AM 55.0 °F 48.9 °F 80% 30.02 in 5.0 mi SSE 9.2 mph 16.1 mph 0.02 in Rain Rain
3:35 AM 53.6 °F 51.8 °F 94% 29.99 in 1.8 mi ESE 12.7 mph - 0.20 in Rain Heavy Rain
3:45 AM 53.6 °F 51.8 °F 94% 30.00 in 2.5 mi SE 10.4 mph 18.4 mph 0.25 in Rain Heavy Rain
3:53 AM 54.0 °F 51.1 °F 90% 30.01 in 2.5 mi Variable 4.6 mph 17.3 mph 0.31 in Rain Rain
4:06 AM 53.6 °F 51.8 °F 94% 30.01 in 4.0 mi Variable 5.8 mph - 0.08 in Rain , Thunderstorm Rain
4:17 AM 53.6 °F 51.8 °F 94% 30.00 in 9.0 mi ESE 9.2 mph - 0.08 in Rain , Thunderstorm Light Rain
4:28 AM 53.6 °F 51.8 °F 94% 30.00 in 10.0 mi ESE 5.8 mph - 0.09 in Rain Light Rain
4:46 AM 53.6 °F 51.8 °F 94% 30.00 in 10.0 mi ESE 6.9 mph - 0.09 in Rain Light Rain
4:53 AM 54.0 °F 51.1 °F 90% 30.00 in 10.0 mi SE 6.9 mph - 0.09 in Rain Light Rain
5:24 AM 53.6 °F 51.8 °F 94% 30.00 in 10.0 mi SE 6.9 mph - 0.00 in   Overcast
5:53 AM 53.1 °F 51.1 °F 93% 30.02 in 10.0 mi South 6.9 mph - 0.00 in Rain Light Rain
6:51 AM 53.6 °F 51.8 °F 94% 30.03 in 3.0 mi Calm Calm - 0.03 in Rain Rain
6:53 AM 53.1 °F 51.1 °F 93% 30.04 in 2.5 mi Calm Calm - 0.04 in Rain Rain
7:01 AM 53.6 °F 51.8 °F 94% 30.03 in 1.8 mi SE 4.6 mph - 0.03 in Rain Rain
7:05 AM 53.6 °F 50.0 °F 88% 30.03 in 3.0 mi SE 4.6 mph - 0.03 in Rain Light Rain
7:16 AM 53.6 °F 50.0 °F 88% 30.04 in 10.0 mi SE 3.5 mph - 0.03 in   Overcast
7:24 AM 53.6 °F 51.8 °F 94% 30.04 in 7.0 mi Calm Calm - 0.04 in Rain Light Rain
7:38 AM 53.6 °F 50.0 °F 88% 30.04 in 2.5 mi SE 3.5 mph - 0.07 in Rain Light Rain
7:45 AM 53.6 °F 50.0 °F 88% 30.04 in 8.0 mi SE 4.6 mph - 0.07 in Rain Light Rain
7:53 AM 53.1 °F 50.0 °F 89% 30.05 in 10.0 mi ESE 5.8 mph - 0.07 in   Overcast
8:53 AM 54.0 °F 51.1 °F 90% 30.04 in 8.0 mi ESE 6.9 mph - 0.01 in Rain Light Rain
9:11 AM 53.6 °F 50.0 °F 88% 30.01 in 7.0 mi SE 6.9 mph - 0.01 in Rain Light Rain
9:53 AM 54.0 °F 51.1 °F 90% 30.02 in 10.0 mi Variable 6.9 mph - 0.02 in   Overcast
10:39 AM 55.4 °F 51.8 °F 88% 30.02 in 10.0 mi SSE 4.6 mph - N/A   Overcast
10:53 AM 54.0 °F 51.1 °F 90% 30.03 in 10.0 mi SSE 5.8 mph - N/A   Overcast
11:42 AM 55.4 °F 51.8 °F 88% 30.01 in 10.0 mi SSE 4.6 mph - 0.00 in Rain Light Rain
11:53 AM 55.9 °F 52.0 °F 87% 30.02 in 10.0 mi SSE 8.1 mph - 0.00 in Rain Light Rain
12:28 PM 55.4 °F 53.6 °F 94% 29.97 in 7.0 mi SSE 9.2 mph - 0.00 in Rain Light Rain
12:53 PM 57.9 °F 54.0 °F 87% 29.94 in 9.0 mi SE 9.2 mph 18.4 mph 0.00 in Rain Light Rain
1:10 PM 57.2 °F 53.6 °F 88% 29.93 in 10.0 mi SSE 9.2 mph - 0.00 in   Overcast
2:27 PM 64.4 °F 57.2 °F 77% 29.92 in 10.0 mi SSE 9.2 mph - N/A   Mostly Cloudy
2:53 PM 66.0 °F 57.9 °F 75% 29.93 in 10.0 mi SSE 8.1 mph - N/A   Scattered Clouds
3:53 PM 69.1 °F 59.0 °F 70% 29.92 in 10.0 mi SSE 5.8 mph - N/A   Partly Cloudy
4:53 PM 72.0 °F 59.0 °F 64% 29.92 in 10.0 mi Variable 4.6 mph - N/A   Clear
5:53 PM 73.0 °F 59.0 °F 61% 29.91 in 10.0 mi South 4.6 mph - N/A   Clear
6:53 PM 71.1 °F 59.0 °F 66% 29.91 in 8.0 mi South 4.6 mph - N/A   Overcast
7:38 PM 66.2 °F 62.6 °F 88% 29.91 in 10.0 mi Calm Calm - 0.01 in Thunderstorm Overcast
7:53 PM 66.0 °F 62.1 °F 87% 29.91 in 10.0 mi Calm Calm - 0.01 in Thunderstorm Overcast
8:00 PM 66.2 °F 62.6 °F 88% 29.91 in 10.0 mi Calm Calm - N/A   Overcast
8:53 PM 64.0 °F 62.1 °F 93% 29.90 in 8.0 mi Calm Calm - 0.00 in Rain Light Rain
9:53 PM 63.0 °F 61.0 °F 93% 29.91 in 10.0 mi Calm Calm - 0.00 in   Overcast
10:53 PM 64.9 °F 60.1 °F 84% 29.88 in 10.0 mi SE 5.8 mph - N/A   Partly Cloudy
11:53 PM 66.0 °F 60.1 °F 81% 29.86 in 10.0 mi SSE 5.8 mph - N/A   Clear